Other Public Products
Issued by NWS Grand Forks, ND

Home | Current Version | Previous Version | Graphics & Text | Print | Product List | Glossary On
Versions: 1 2 3 4 5 6 7 8 9 10 11 12 13 14 15 16 17 18 19 20 21 22 23 24 25 26 27 28 29 30 31 32 33 34 35 36 37 38 39 40 41 42 43 44 45 46 47 48 49 50
000
FPUS83 KFGF 231631
OPUFGF
PRAIRIE TO PINES WEATHER ROUNDUP
NATIONAL WEATHER SERVICE EASTERN NORTH DAKOTA/GRAND FORKS ND
1100 AM CDT TUE MAY 23 2017

 **SATELLITE DATA USED TO AUGMENT SKY COVER AT AUTOMATED STATIONS**
 *****  WEATHER ACROSS EASTERN NORTH DAKOTA  *****

CITY           SKY/WX    TMP DP  RH WIND       PRES   REMARKS
GRAND FORKS    CLOUDY    54  44  69 NE21G26   30.02R
GRAND FORKS AF CLOUDY    52  43  72 NE15      30.02R
GRAND CITY NWS NOT AVBL
BUXTON           N/A     50  46  84 N21         N/A
DEVILS LAKE    PTSUNNY   56  40  55 NE24G30   30.08S
FARGO          CLOUDY    50  47  89 N16       29.96R
WAHPETON ARPT  CLOUDY    52  45  76 N16       29.93S
$$

 *****  WEATHER ACROSS CENTRAL AND WESTERN NORTH DAKOTA  *****

CITY           SKY/WX    TMP DP  RH WIND       PRES   REMARKS
JAMESTOWN      CLOUDY    49  44  83 N18       30.02R
BISMARCK       FAIR      59  37  44 NE25G37   30.09R
MINOT          FAIR      61  36  39 N12G21    30.13F
MINOT AFB      FAIR      60  36  40 N12G17    30.13F
GARRISON         N/A     57  35  43 NE14G22   30.13S
WILLISTON      FAIR      63  34  33 SE6       30.17S
DICKINSON      FAIR      57  34  41 NE15      30.13F
HETTINGER      FAIR      59  33  37 N21G28    30.14F
$$

 *****  OTHER OBSERVATIONS NORTHEAST NORTH DAKOTA  *****

CITY           SKY/WX    TMP DP  RH WIND       PRES   REMARKS
WALHALLA       NOT AVBL
LANGDON        FAIR      57  43  58 NE23G32   30.08S
CAVALIER       FAIR      59  46  63 N17G30    30.05F
GRAFTON        PTSUNNY   55  45  67 N18G28    30.05S
CANDO          NOT AVBL
FORT TOTTEN      N/A     54  41  61 N7        29.95S
ROLLA          FAIR      57  36  44 NE21G29   30.11F
RUGBY          NOT AVBL
 ***** THE ABOVE OBSERVATIONS ARE NON NWS ARE NOT QUALITY
        CONTROLLED AND MAY MIS-REPORT RAIN FOR SNOW...
$$

 *****  OTHER OBSERVATIONS SOUTHEAST NORTH DAKOTA *****

CITY           SKY/WX    TMP DP  RH WIND       PRES   REMARKS
COOPERSTOWN    CLOUDY    50  45  81 NE22G29   30.03R
VALLEY CITY    CLOUDY    46  46 100 N17G25    30.02
OAKES          NOT AVBL
GWINNER        CLOUDY    46  46 100 MISG      29.97S FOG
SHEYENNE NWR     N/A     48  46  91 N9        29.95S
BUFFALO          N/A     48  43  81 E13         N/A
WYNDMERE         N/A     48  46  93 N16         N/A
 ***** THE ABOVE OBSERVATIONS ARE NON NWS ARE NOT QUALITY
       CONTROLLED AND MAY MIS-REPORT RAIN FOR SNOW...
$$

  *****  WEATHER ACROSS NORTHERN MINNESOTA  *****

CITY           SKY/WX    TMP DP  RH WIND       PRES   REMARKS
FLAG ISLAND    PTSUNNY   54  39  58 NE21G28   30.01S
WARROAD        FAIR      54  45  71 NE16G28   30.02R
ROSEAU         PTSUNNY   55  45  67 NE24      30.01S
HALLOCK        PTSUNNY   57  43  58 NE13G18   30.03S
THF RVR FALLS  CLOUDY    49  42  77 NE15      30.00R
HALSTAD          N/A     51  46  84 NE17        N/A
FOSSTON        CLOUDY    46  45  93 N13       29.96S
BAUDETTE       CLOUDY    50  42  74 NE13      29.99R
WASKISH        CLOUDY    48  45  87 NE15      29.96S
CROOKSTON      CLOUDY    52  43  71 NE14G20   30.01R
$$
  *****  WEATHER ACROSS CENTRAL AND WEST MINNESOTA  *****

CITY           SKY/WX    TMP DP  RH WIND       PRES   REMARKS
BEMIDJI        CLOUDY    46  45  95 N12       29.93S
PARK RAPIDS    LGT RAIN  53  41  63 E9        29.90S
WADENA         PTSUNNY   52  46  82 NE8       29.89S
DETROIT LAKES  PTSUNNY   52  46  82 N12       29.92S
MOORHEAD       CLOUDY    50  46  87 N21       29.96S
FERGUS FALLS   CLOUDY    52  48  87 N9G16     29.89S
ELBOW LAKE     CLOUDY    51  45  79 NE10      29.89S
MORRIS MN      RAIN      50  48  93 N14       29.88S
STAPLES        CLOUDY    52  43  71 NE6       29.89S
WHEATON        CLOUDY    50  46  87 NW17G23   29.93S
$$
  *****  WEATHER ELSEWHERE ACROSS MINNESOTA  *****

CITY           SKY/WX    TMP DP  RH WIND       PRES   REMARKS
DULUTH         CLOUDY    51  44  77 E10       29.88R
INTRNTL FALLS  CLOUDY    48  43  82 NE12      29.96R
ELY            CLOUDY    48  45  87 NE7       29.90S
CLOQUET        CLOUDY    52  41  66 E9        29.88S
BRAINERD       CLOUDY    52  43  71 NE10      29.88F
HIBBING        CLOUDY    52  45  77 N8        29.89S
ALEXANDRIA     CLOUDY    50  43  77 NE12      29.89R
SAINT CLOUD    CLOUDY    53  47  79 N9        29.85S
MINNEAPOLIS    CLOUDY    56  45  66 VRB6      29.83S
$$

  *****  WEATHER ACROSS SOUTH DAKOTA  *****

CITY           SKY/WX    TMP DP  RH WIND       PRES   REMARKS
SIOUX FALLS    LGT RAIN  53  49  86 N13       29.90S
BROOKINGS      LGT RAIN  48  45  87 N16       29.90S
WATERTOWN      CLOUDY    47  45  93 N16       29.90F
HURON          CLOUDY    50  45  83 N15       29.95S
SISSETON         N/A     49  48  97 N21       29.92S
ABERDEEN       CLOUDY    50  41  71 N17G29    29.99S
MITCHELL       CLOUDY    52  45  77 N15       29.95S
PIERRE         LGT RAIN  52  38  58 N22G35    30.04R
MOBRIDGE       PTSUNNY   57  38  48 N21G31    30.02S
RAPID CITY     FAIR      56  36  47 N15G23    30.14F
$$

  *****  SOME WEATHER IN NEARBY STATES *****

CITY           SKY/WX    TMP DP  RH WIND       PRES   REMARKS
GLASGOW MT     FAIR      62  36  37 S3        30.14F
GREAT FALLS MT FAIR      66  42  41 SW14      30.07F
CHEYENNE WY    CLOUDY    47  32  56 N22G31    30.21F
SCOTTSBLUFF NE CLOUDY    57  36  45 NW22G28   30.15F
OMAHA NE       CLOUDY    56  45  66 NW10      29.90S
DES MOINES IA  PTSUNNY   61  46  57 NW13      29.82F
DAVENPORT IA   CLOUDY    58  52  80 W8        29.79S
CHICAGO IL     CLOUDY    60  54  80 SW5       29.79F
EAU CLAIRE WI  CLOUDY    51  48  89 NE7       29.81S
LA CROSSE WI   CLOUDY    59  53  80 N7        29.76S
$$

  *****  SOME NATIONAL WEATHER *****

CITY           SKY/WX    TMP DP  RH WIND       PRES   REMARKS
LA GUARDIA NY  CLOUDY    65  48  54 CALM      29.93F
RALEIGH NC     CLOUDY    71  67  87 E7        29.84F
ATLANTA GA     LGT RAIN  67  65  93 SW8       29.83F
NEW ORLEANS LA PTSUNNY   78  71  79 W8        29.78S
OKLAHOMA CITY  PTSUNNY   59  51  75 N21G26    29.96S
ALBUQUERQUE NM FAIR      62  40  44 E12G21    30.17R
SALT LAKE CITY FAIR      70  40  33 S7        30.18S
LOS ANGELES CA PTSUNNY   68  58  70 E3        29.94F
BOISE ID       FAIR      70  41  34 SE9       30.12F
SEATTLE WA     FAIR      67  55  65 W5        30.04S
$$

*** WEATHER ACROSS MANITOBA...SASKATCHEWAN AND ONTARIO ***
                ***ONTARIO***

CITY           SKY/WX    TMP DP  RH WIND       PRES   REMARKS
GERALDTON      CLOUDY    43  39  87 N8        29.94R
THUNDER BAY    CLOUDY    52  45  76 NE9       29.90F
SIOUX LOOKOUT  PTSUNNY   54  41  62 VRB9G17   30.00S
TORONTO        PTSUNNY   70  52  52 SW12      29.85F
BIG TROUT LK   SUNNY     48  27  43 VRB5      30.11F
PICKLE LAKE    MOSUNNY   54  34  47 N7        30.02S
DRYDEN         MOSUNNY   54  43  66 NE14G23   30.00S
KENORA         PTSUNNY   55  39  54 NE14G22   30.03R
$$
                *** MANITOBA***

CITY           SKY/WX    TMP DP  RH WIND       PRES   REMARKS
BRANDON        MOSUNNY   61  37  41 NE7       30.13F
DAUPHIN        SUNNY     64  36  34 VRB3      30.12F
ISLAND LAKE    MOSUNNY   57  28  33 W5        30.12F
PILOT MOUND      N/A     57  36  44 N16G24      N/A
THE PAS        PTSUNNY   68  36  30 MISG      30.04F
THOMPSON       PTSUNNY   64  37  36 S7        30.03F
WINNIPEG       MOSUNNY   61  43  51 NE15G25   30.08F
LYNN LAKE      MOSUNNY   64  36  34 S14G24    29.88F
CHURCHILL      PTSUNNY   43  34  70 S16       30.02F
GILLAM         PTSUNNY   63  41  45 VRB2      30.07F
$$
                ***SASKATCHEWAN***

CITY           SKY/WX    TMP DP  RH WIND       PRES   REMARKS
ESTEVAN        MOSUNNY   59  34  38 VRB3      30.15F
KINDERSLEY     PTSUNNY   70  34  26 S18G25    29.97F
LLOYDMINSTER   PTSUNNY   63  39  42 S16G24    29.87F
PRINCE ALBERT  PTSUNNY   68  39  34 S7        29.99F
REGINA         MOSUNNY   66  32  28 SE9       30.11F
YORKTON        SUNNY     63  30  29 SW7       30.12F



USA.gov is the U.S. government's official web portal to all federal, state and local government web resources and services.